LIBDLFOB

Guest
Details From LIBD - Bari Palese Macchie
To LFOB - Beauvais-Tille
Flight Number -
Tags decoded
Created
Modified
Stats Distance 801 nm / 1,483 km
Max Altitude 0 ft / 0 m
Waypoints 6
Social Downloads 0
Likes 0
Share VATSIM

Download

Looking for another format? Having issues loading an existing format? Contact us
Advertisement - Login to hide

Notes

Requested: LIBD 4150N01616E 4154N01603E VIE ANC LFOB

Route

LIBD 4150N01616E 4154N01603E VIE ANC LFOB

ID Type Via Altitude Latitude Longitude Leg Dist Tot Dist Heading (true) Name
O LIBD APT - 0 ft / 0 m 41.13787˚ 16.75832˚ - 0 nm - Bari Palese Macchie
4150N01616E LATLON - 0 ft / 0 m 41.50000˚ 16.16000˚ 34 nm 34 nm 309° / 309° -
4154N01603E LATLON - 0 ft / 0 m 41.54000˚ 16.03000˚ 6 nm 40 nm 292° / 292° -
VIE VOR - 0 ft / 0 m 41.91274˚ 16.04914˚ 22 nm 63 nm 2° / 2° VIESTE VOR-DME
ANC NDB - 0 ft / 0 m 43.58667˚ 13.47222˚ 151 nm 215 nm 312° / 311° ANCONA NDB
O LFOB APT - 0 ft / 0 m 49.45600˚ 2.11891˚ 585 nm 800 nm 311° / 303° Beauvais-Tille

Altitude Profile

Advertisement - Login to hide

Weather


0- 5 10 15 20 25 30 35+ Temperature / ° C

Clouds and Precipitation
Forecast for 2017-12-13 00:00 UTC. Updated an hour ago

Ground ~20,000 ft ~40,000 ft Winds

LIBD

Details ICAO LIBD (BRI)
Name Bari Palese Macchie
Region Italy
Timezone Europe/Rome (UTC+1.0)
Stats Elevation 177 ft / 54 m (AMSL)
Location 41.137865° 16.758318°
Runways 1
Magnetic Variation 3.737° E

METAR

LIBD 121950Z 22006KT 190V250 CAVOK 12/08 Q1018

Decode

TAF

TAF LIBD 121700Z 1218/1318 18008KT 9999 SCT030 TEMPO 1309/1316 RA= TAF LIBP 121700Z 1218/1318 VRB06KT 9999 SCT030 TEMPO 1300/1309 4000 RA TEMPO 1309/1315 SHRA

Decode

Departure Runways

ID Width Length Bearing (true) Bearing (mag) Surface Threshold Offset Overrun Length
07 148 ft / 45 m 9,262 ft / 2,823 m 69.39° 65.65° Asphalt 1,257 ft / 383 m 0 ft / 0 m
25 148 ft / 45 m 9,262 ft / 2,823 m 249.42° 245.68° Asphalt 0 ft / 0 m 194 ft / 59 m

LFOB

Details ICAO LFOB (BVA)
Name Beauvais-Tille
Region France
Timezone Europe/Paris (UTC+1.0)
Stats Elevation 358 ft / 109 m (AMSL)
Location 49.456000° 2.118914°
Runways 2
Magnetic Variation 0.474° E

METAR

LFOB 122000Z AUTO 20006KT 9999 BKN045 BKN180 02/01 Q1014 NOSIG

Decode

TAF

TAF LFOB 121700Z 1218/1318 20005KT CAVOK BECMG 1302/1305 3000 RADZ OVC007 TEMPO 1305/1308 24020G30KT OVC003 PROB30 TEMPO 1305/1308 1200 RASN BECMG 1308/1310 9999 NSW TEMPO 1310/1318 2000 RADZ OVC003 TEMPO 1314/1318 24020G35KT

Decode

Destination Runways

ID Width Length Bearing (true) Bearing (mag) Surface Threshold Offset Overrun Length
04 82 ft / 25 m 2,321 ft / 707 m 41.41° 40.94° Asphalt 0 ft / 0 m 0 ft / 0 m
12 148 ft / 45 m 7,954 ft / 2,424 m 123.73° 123.26° Asphalt 148 ft / 45 m 0 ft / 0 m
22 82 ft / 25 m 2,321 ft / 707 m 221.41° 220.94° Asphalt 0 ft / 0 m 0 ft / 0 m
30 148 ft / 45 m 7,954 ft / 2,424 m 303.75° 303.28° Asphalt 0 ft / 0 m 0 ft / 0 m

Approach Navaids

Runway Type Ident Frequency Range Bearing (true) Bearing (mag) Slope Elevation
12 Localiser BVT 111.15 MHz 18 nm / 33 km 123.73° 123.26° - 289 ft / 88 m (AMSL)
12 Glidescope BVT 111.15 MHz 10 nm / 19 km 125.00° 124.53° 3.00° 344 ft / 105 m (AMSL)
12 DME BVT 111.15 MHz 18 nm / 33 km - - - 344 ft / 105 m (AMSL)
30 Localiser BI 109.95 MHz 18 nm / 33 km 303.83° 303.36° - 327 ft / 100 m (AMSL)
30 Glidescope BI 109.95 MHz 10 nm / 19 km 305.00° 304.53° 3.00° 305 ft / 93 m (AMSL)
30 DME BI 109.95 MHz 18 nm / 33 km - - - 303 ft / 92 m (AMSL)

Popular Alternatives